ホームズ彗星

C/2008 N1 ( Holmes )

English version
Home page
Total 6,336 html files since Dec. 4, 1995
Updated on October 12, 2008

---------------------------------------------------------------------

・ プロフィール

発見日 2008年7月1日
発見光度 20.2等
発見者 Robert E. Holmes, Jr. (Charleston, IL, U.S.A.)

・ 写真集

・ 軌道要素

Epoch 2009 Sept. 6.0 TT = JDT 2455080.5
T 2009 Sept. 25.91496 TT                                MPC
q   2.7834945            (2000.0)            P               Q
z  +0.0010641      Peri.  100.81928     -0.20619670     -0.97770033
 +/-0.0000331      Node   357.47153     -0.73284754     +0.18126165
e   0.9970380      Incl.  115.51887     +0.64839603     -0.10604850

・ 星図

・ 光度変化

        m1 = 8.5 + 5 logΔ + 10.0 log r

---------------------------------------------------------------------

軌道要素はM.P.E.C. 2008-R70に掲載されたものです。
星図はステラナビゲータ Ver.8 (アストロアーツ) で作成したものです。
光度グラフはComet for Windowsで作成したものです。

---------------------------------------------------------------------

Copyright(C) 1995-2008 Seiichi Yoshida (comet@aerith.net). All rights reserved.